Hourly Weather Rudy

Today, 20 April, Tuesday

Time Temperature Precipitation Wind Pressure Humidity
00:00 +8°C° 0 mm 1 mps 742 mmHg 87%
01:00 +8°C° 0 mm 1 mps 742 mmHg 87%
02:00 +7°C° 0 mm 1 mps 742 mmHg 87%
03:00 +7°C° 0 mm 1 mps 742 mmHg 88%
04:00 +7°C° 0 mm 1 mps 742 mmHg 89%
05:00 +6°C° 0 mm 2 mps 742 mmHg 86%
06:00 +7°C° 0 mm 2 mps 743 mmHg 83%
07:00 +8°C° 0 mm 2 mps 743 mmHg 79%
08:00 +9°C° 0 mm 2 mps 743 mmHg 71%
09:00 +12°C° 0 mm 2 mps 743 mmHg 63%
10:00 +13°C° 0 mm 2 mps 743 mmHg 55%
11:00 +14°C° 0 mm 2 mps 742 mmHg 51%
12:00 +14°C° 0 mm 2 mps 742 mmHg 48%
13:00 +14°C° 0 mm 2 mps 742 mmHg 44%
14:00 +15°C° 0 mm 2 mps 742 mmHg 45%
15:00 +15°C° 0 mm 2 mps 741 mmHg 45%
16:00 +15°C° 0 mm 2 mps 741 mmHg 46%
17:00 +13°C° 0 mm 2 mps 741 mmHg 51%
18:00 +12°C° 0 mm 2 mps 741 mmHg 56%
19:00 +11°C° 0 mm 1 mps 741 mmHg 61%
20:00 +10°C° 0 mm 1 mps 741 mmHg 64%
21:00 +9°C° 0 mm 1 mps 742 mmHg 67%
22:00 +7°C° 0 mm 0 mps 742 mmHg 71%
23:00 +8°C° 0 mm 1 mps 742 mmHg 73%

Tomorrow, 21 April, Wednesday

Time Temperature Precipitation Wind Pressure Humidity
00:00 +8°C° 0 mm 1 mps 742 mmHg 75%
01:00 +7°C° 0 mm 1 mps 741 mmHg 77%
02:00 +6°C° 0 mm 2 mps 741 mmHg 78%
03:00 +6°C° 0 mm 2 mps 741 mmHg 79%
04:00 +5°C° 0 mm 2 mps 741 mmHg 81%
05:00 +7°C° 0 mm 2 mps 741 mmHg 77%
06:00 +8°C° 0 mm 2 mps 741 mmHg 73%
07:00 +9°C° 0 mm 2 mps 741 mmHg 70%
08:00 +10°C° 0.1 mm 2 mps 741 mmHg 67%
09:00 +13°C° 0.1 mm 2 mps 741 mmHg 63%
10:00 +14°C° 0.1 mm 2 mps 741 mmHg 60%
11:00 +14°C° 0.3 mm 3 mps 741 mmHg 57%
12:00 +16°C° 0.3 mm 3 mps 741 mmHg 54%
13:00 +16°C° 0.3 mm 3 mps 740 mmHg 51%
14:00 +16°C° 0.3 mm 3 mps 740 mmHg 52%
15:00 +16°C° 0.3 mm 3 mps 740 mmHg 53%
16:00 +16°C° 0.3 mm 3 mps 740 mmHg 54%
17:00 +14°C° 0.2 mm 2 mps 740 mmHg 59%
18:00 +13°C° 0.2 mm 2 mps 740 mmHg 64%
19:00 +11°C° 0.2 mm 1 mps 740 mmHg 69%
20:00 +10°C° 0 mm 1 mps 740 mmHg 71%
21:00 +10°C° 0 mm 1 mps 740 mmHg 72%
22:00 +9°C° 0 mm 1 mps 741 mmHg 74%
23:00 +9°C° 0 mm 1 mps 741 mmHg 75%

Day after tomorrow, 22 April, Thursday

Time Temperature Precipitation Wind Pressure Humidity
00:00 +8°C° 0 mm 2 mps 740 mmHg 76%
01:00 +8°C° 0 mm 2 mps 740 mmHg 78%
02:00 +7°C° 0 mm 2 mps 741 mmHg 81%
03:00 +5°C° 0 mm 3 mps 741 mmHg 85%
04:00 +5°C° 0 mm 3 mps 741 mmHg 89%
05:00 +5°C° 0 mm 3 mps 741 mmHg 89%
06:00 +5°C° 0 mm 3 mps 742 mmHg 88%
07:00 +5°C° 0 mm 3 mps 742 mmHg 87%
08:00 +5°C° 0.1 mm 3 mps 742 mmHg 85%
09:00 +4°C° 0.1 mm 3 mps 742 mmHg 84%
10:00 +3°C° 0.1 mm 3 mps 743 mmHg 82%
11:00 +5°C° 0 mm 2 mps 743 mmHg 77%
12:00 +5°C° 0 mm 2 mps 743 mmHg 72%
13:00 +6°C° 0 mm 2 mps 743 mmHg 66%
14:00 +7°C° 0 mm 2 mps 743 mmHg 65%
15:00 +7°C° 0 mm 2 mps 743 mmHg 64%
16:00 +8°C° 0 mm 2 mps 743 mmHg 63%
17:00 +7°C° 0.1 mm 2 mps 743 mmHg 66%
18:00 +6°C° 0.1 mm 2 mps 743 mmHg 69%
19:00 +5°C° 0.1 mm 2 mps 743 mmHg 72%
20:00 +5°C° 0 mm 2 mps 743 mmHg 73%
21:00 +4°C° 0 mm 2 mps 743 mmHg 73%
22:00 +5°C° 0 mm 1 mps 744 mmHg 74%
23:00 +3°C° 0 mm 2 mps 744 mmHg 75%

23 April, Friday

Time Temperature Precipitation Wind Pressure Humidity
00:00 +3°C° 0 mm 2 mps 744 mmHg 76%
01:00 +1°C° 0 mm 3 mps 744 mmHg 77%
02:00 +1°C° 0 mm 3 mps 744 mmHg 81%
03:00 +1°C° 0 mm 3 mps 744 mmHg 86%
04:00 +1°C° 0 mm 3 mps 745 mmHg 90%
05:00 +1°C° 0 mm 3 mps 745 mmHg 86%
06:00 +1°C° 0 mm 4 mps 745 mmHg 82%
07:00 +2°C° 0 mm 5 mps 746 mmHg 78%
08:00 +2°C° 0 mm 5 mps 746 mmHg 72%
09:00 +3°C° 0 mm 5 mps 747 mmHg 67%
10:00 +5°C° 0 mm 5 mps 747 mmHg 61%
11:00 +5°C° 0 mm 4 mps 747 mmHg 61%
12:00 +5°C° 0 mm 4 mps 747 mmHg 60%
13:00 +6°C° 0 mm 4 mps 748 mmHg 59%
14:00 +6°C° 0 mm 4 mps 748 mmHg 59%
15:00 +6°C° 0 mm 5 mps 748 mmHg 59%
16:00 +7°C° 0 mm 5 mps 748 mmHg 59%
17:00 +5°C° 0 mm 4 mps 748 mmHg 65%
18:00 +4°C° 0 mm 3 mps 748 mmHg 70%
19:00 +4°C° 0 mm 2 mps 749 mmHg 76%
20:00 +4°C° 0 mm 2 mps 749 mmHg 80%
21:00 +3°C° 0 mm 2 mps 749 mmHg 84%
22:00 +2°C° 0 mm 2 mps 749 mmHg 87%
23:00 +2°C° 0 mm 2 mps 749 mmHg 87%

24 April, Saturday

Time Temperature Precipitation Wind Pressure Humidity
00:00 +2°C° 0 mm 1 mps 749 mmHg 88%
01:00 +2°C° 0 mm 1 mps 749 mmHg 88%
02:00 +2°C° 0 mm 1 mps 749 mmHg 86%
03:00 -1°C° 0 mm 2 mps 749 mmHg 84%
04:00 -1°C° 0 mm 2 mps 748 mmHg 83%
05:00 +1°C° 0 mm 3 mps 748 mmHg 77%
06:00 +2°C° 0 mm 3 mps 748 mmHg 71%
07:00 +4°C° 0 mm 4 mps 748 mmHg 64%
08:00 +6°C° 0 mm 4 mps 748 mmHg 58%
09:00 +8°C° 0 mm 5 mps 748 mmHg 52%
10:00 +10°C° 0 mm 5 mps 747 mmHg 46%
11:00 +10°C° 0 mm 5 mps 747 mmHg 47%
12:00 +10°C° 0 mm 5 mps 747 mmHg 48%
13:00 +10°C° 0 mm 5 mps 746 mmHg 48%
14:00 +10°C° 0 mm 5 mps 746 mmHg 52%
15:00 +9°C° 0 mm 6 mps 747 mmHg 55%
16:00 +9°C° 0 mm 6 mps 747 mmHg 59%
17:00 +8°C° 0 mm 5 mps 747 mmHg 63%
18:00 +6°C° 0 mm 4 mps 747 mmHg 67%
19:00 +5°C° 0 mm 3 mps 748 mmHg 72%
20:00 +4°C° 0 mm 3 mps 748 mmHg 77%
21:00 +4°C° 0 mm 2 mps 748 mmHg 82%
22:00 +4°C° 0 mm 2 mps 748 mmHg 88%
23:00 +3°C° 0 mm 2 mps 749 mmHg 89%

25 April, Sunday

Time Temperature Precipitation Wind Pressure Humidity
00:00 +3°C° 0 mm 2 mps 749 mmHg 91%
01:00 +3°C° 0 mm 2 mps 749 mmHg 93%
02:00 +2°C° 0 mm 2 mps 749 mmHg 94%
03:00 +2°C° 0 mm 2 mps 749 mmHg 94%
04:00 +1°C° 0 mm 2 mps 749 mmHg 95%
05:00 +2°C° 0 mm 2 mps 750 mmHg 86%
06:00 +2°C° 0 mm 3 mps 750 mmHg 77%
07:00 +3°C° 0 mm 3 mps 751 mmHg 67%
08:00 +4°C° 0 mm 3 mps 751 mmHg 59%
09:00 +5°C° 0 mm 3 mps 751 mmHg 50%
10:00 +8°C° 0 mm 3 mps 751 mmHg 41%
11:00 +7°C° 0 mm 4 mps 751 mmHg 39%
12:00 +8°C° 0 mm 4 mps 751 mmHg 37%
13:00 +10°C° 0 mm 4 mps 751 mmHg 36%
14:00 +10°C° 0 mm 4 mps 751 mmHg 37%
15:00 +10°C° 0 mm 4 mps 751 mmHg 38%
16:00 +9°C° 0 mm 5 mps 750 mmHg 39%
17:00 +7°C° 0 mm 4 mps 750 mmHg 44%
18:00 +7°C° 0 mm 3 mps 750 mmHg 50%
19:00 +6°C° 0 mm 2 mps 750 mmHg 56%
20:00 +5°C° 0 mm 2 mps 751 mmHg 59%
21:00 +4°C° 0 mm 2 mps 751 mmHg 62%
22:00 +3°C° 0 mm 2 mps 751 mmHg 65%
23:00 +4°C° 0 mm 1 mps 751 mmHg 66%
Show more